Regional Weather Roundup
Issued by NWS

Home | Current Version | Previous Version | Text Only | Print | Product List | Glossary On
Versions: 1 2 3 4 5 6 7 8 9 10 11 12 13 14 15 16 17 18 19 20 21 22 23 24 25 26 27 28 29 30 31 32 33 34 35 36 37 38 39 40 41 42 43 44 45 46 47 48 49 50
000
ASUS42 KFFC 301410
RWRGA
WEATHER ROUNDUP FOR GEORGIA
NATIONAL WEATHER SERVICE PEACHTREE CITY GA
1000 AM EDT THU MAR 30 2017

NOTE: "FAIR" INDICATES FEW OR NO CLOUDS BELOW 12,000 FEET WITH NO
SIGNIFICANT WEATHER AND/OR OBSTRUCTIONS TO VISIBILITY.

* = USE WITH CAUTION. THE STATIONS MARKED WITH AN ASTERISK MAY NOT
REPORT WEATHER SUCH AS PRECIPITATION, FOG, OR THUNDER AND ARE NOT
QUALITY CONTROLLED BY NWS.

THE REMARK "TC" DENOTES TEMPERATURE READING IN DEGREES CELSIUS.

GAZ001>058-301500-
NORTH GEORGIA

CITY           SKY/WX    TMP DP  RH WIND       PRES   REMARKS
ATLANTA        CLOUDY    67  55  65 VRB3      30.02R
ATHENS         PTSUNNY   66  60  81 S3        30.04R
CHAMBLEE       CLOUDY    68  56  65 CALM      30.02R
PEACHTREE CITY MOSUNNY   67  57  70 VRB6      30.03R
ROME           CLOUDY    66  58  75 S5        29.97F
WEST ATLANTA   PTSUNNY   66  56  70 CALM      30.01R
GAINESVILLE    CLOUDY    62  56  80 E6        30.06R
CARTERSVILLE   CLOUDY    66  57  72 SE5       30.00S


CITY           SKY/WX    TMP DP  RH WIND       PRES   REMARKS
DALTON*        CLOUDY    66  59  77 SE6       29.99S
LAWRENCEVILLE* PTSUNNY   63  57  82 E7        30.04R
MARIETTA       CLOUDY    67  56  68 CALM      30.02R
KENNESAW*      MOSUNNY   66  55  68 S7        30.00S
CANTON*        PTSUNNY   64  50  59 E6        30.03S
$$

GAZ059>098-102>109-301500-
CENTRAL GEORGIA

CITY           SKY/WX    TMP DP  RH WIND       PRES   REMARKS
AUGUSTA-BUSH   CLOUDY    72  65  78 SE8       30.02S
AUGUSTA-DANIEL CLOUDY    70  62  76 SE8       30.04S
COLUMBUS       SUNNY     68  57  68 SW3       30.02R
MACON          MOSUNNY   68  60  75 CALM      30.01R
ROBINS AFB     MOSUNNY   69  60  74 CALM      30.00S


CITY           SKY/WX    TMP DP  RH WIND       PRES   REMARKS
LAGRANGE*      SUNNY     70  61  73 W8        30.01S
SYLVANIA*      CLOUDY   N/A N/A N/A SE6       30.04S
MILLEDGEVILLE* SUNNY     68  63  83 CALM      30.03R
$$

GAZ099>101-110>166-301500-
SOUTH GEORGIA

CITY           SKY/WX    TMP DP  RH WIND       PRES   REMARKS
SAVANNAH       MOSUNNY   74  66  76 SE7       30.02F
VALDOSTA       MOSUNNY   75  55  49 SE6       29.99F
ALMA           CLOUDY    70  64  81 CALM      30.01R
ST SIMONS      PTSUNNY   73  64  73 SE9       30.00F
FT STEWART     PTSUNNY   71  66  83 E6        30.00S
ALBANY         MOSUNNY   70  60  70 W5        30.04R
HUNTER AFB     SUNNY     74  73  96 CALM      30.00F
MOODY AFB      SUNNY     75  55  48 SE3       29.98F
BRUNSWICK      CLOUDY    73  66  78 SE7       30.02R


CITY           SKY/WX    TMP DP  RH WIND       PRES   REMARKS
BAINBRIDGE*    MOSUNNY   66  59  77 W3        30.03R
MOULTRIE*      MOSUNNY   68  59  73 CALM      30.02R
VIDALIA*       CLOUDY    68  63  83 SE5       30.02S
WAYCROSS*      CLOUDY    74  67  76 CALM      30.01S
DOUGLAS*       MOSUNNY   72  57  60 CALM      30.02S
$$




USA.gov is the U.S. government's official web portal to all federal, state and local government web resources and services.